[Iaude] MPEC P16: 2024 OE2 [a=2.20,e=0.55,i=1.7,H=27.2]

mpec at cfa.harvard.edu mpec at cfa.harvard.edu
Thu Aug 1 12:54:15 EDT 2024


M.P.E.C. 2024-P16                                Issued 2024 August 1, 16:52 UT

     The Minor Planet Electronic Circulars contain information on unusual
         minor planets, routine data on comets and natural satellites,
         and occasional editorial announcements.  They are published
    on behalf of Division F of the International Astronomical Union by the
          Minor Planet Center, Smithsonian Astrophysical Observatory,
                          Cambridge, MA 02138, U.S.A.
			  
             Prepared using the Tamkin Foundation Computer Network

                              MPC at CFA.HARVARD.EDU
            URL https://www.minorplanetcenter.net/    ISSN 1523-6714

                                    2024 OE2                                    


Observations:
     K24O02E* C2024 07 31.45301320 57 58.271-05 55 10.52         19.77wXEP016F51
     K24O02E  C2024 07 31.46574420 58 23.332-05 55 51.63         19.80wXEP016F51
     K24O02E  C2024 07 31.49119920 59 13.217-05 57 12.75         19.63wXEP016F51
     K24O02E KB2024 07 31.84539 21 11 11.63 -06 16 39.3          19.4 GXEP016M45
     K24O02E KB2024 07 31.84766 21 11 15.63 -06 16 45.4                XEP016M45
     K24O02E KB2024 07 31.84994 21 11 19.72 -06 16 52.1          19.6 GXEP016M45
     K24O02E KC2024 07 31.86024021 11 40.84 -06 17 14.2          19.6 GVEP016L01
     K24O02E KC2024 07 31.86184421 11 43.72 -06 17 19.1          19.9 GVEP016L01
     K24O02E pC2024 07 31.86320221 11 46.17 -06 17 23.7          19.7 GVEP016L01
     K24O02E pC2024 07 31.86468321 11 48.82 -06 17 28.5          19.8 GVEP016L01
     K24O02E 6C2024 07 31.87162421 12 06.396-06 17 04.20         20.5 GVEP016Z84
     K24O02E 6C2024 07 31.87374121 12 10.137-06 17 10.22         20.3 GVEP016Z84
     K24O02E KB2024 07 31.88629321 12 28.147-06 17 55.03         19.8 GXEP016L34
     K24O02E KB2024 07 31.91029321 13 09.725-06 19 00.66         19.0 GXEP016L34
     K24O02E KB2024 07 31.97973021 15 11.53 -06 22 30.1          19.7 GXEP016I93
     K24O02E KB2024 07 31.98381721 15 18.41 -06 22 40.5          19.0 GXEP016I93
     K24O02E KB2024 07 31.98789421 15 25.28 -06 22 50.9          19.5 GXEP016I93
     K24O02E KC2024 08 01.22566121 22 14.78 -06 31 59.4          20.1 GVEP016H21
     K24O02E KC2024 08 01.22630421 22 15.78 -06 32 00.9          20.2 GVEP016H21
     K24O02E KC2024 08 01.22823421 22 18.78 -06 32 05.2                VEP016H21
     K24O02E KC2024 08 01.22990721 22 21.36 -06 32 09.6          20.1 GVEP016H21
     K24O02E 3C2024 08 01.32713221 25 10.655-06 34 00.36         19.93GVEP016T14
     K24O02E 3C2024 08 01.32810921 25 12.130-06 34 02.66         19.98GVEP016T14
     K24O02E 3C2024 08 01.32908821 25 13.612-06 34 04.94         19.97GVEP016T14
     K24O02E 3C2024 08 01.33028421 25 15.413-06 34 07.74         19.97GVEP016T14

Observer details:
F51 Pan-STARRS 1, Haleakala.  Observers J. Herman, T. Lowe, P. Minguez, A.
    Schultz, I. Smith.  Measurers K. Chambers, T. de Boer, J. Fairlamb, H.
    Gao, M. Huber, C.-C. Lin, E. Magnier, Y. Ramanjooloo, R. Wainscoat, R.
    Weryk.  1.8-m Ritchey-Chretien + CCD.
H21 Astronomical Research Observatory, Westfield.  Observer R. Holmes.
    Measurers T. Linder, R. Holmes.  0.76-m f/3.0 astrograph + CCD.
I93 St Pardon de Conques.  Observer F. Losse.  0.40-m f/3.7 reflector + CMO.
L01 Visnjan Observatory, Tican.  Observer K. Korlevic.  1.0-m f/2.9 reflector
    + CCD.
L34 Galhassin Robotic Telescope, Isnello.  Observer A. Nastasi.  0.40-m f/3.8
    400mm Reflector + CMO.
M45 Starhopper Observatory, Sfantu Gheorghe.  Observer F. Ursache.  0.41-m
    f/7.5 reflector + CMO.
T14 Canada-France-Hawaii Telescope, Maunakea.  Observers R. Wainscoat, J.
    Silva, V. Khatu.  Measurers R. Weryk, R. Wainscoat.  3.6-m f/4.1 reflector
    + CCD.
Z84 Calar Alto-Schmidt.  Observers M. Micheli, R. Kresken.  Measurers R.
    Kresken, M. Micheli, F. Ocana, L. Conversi.  0.8-m f/3 Schmidt + CCD.

Orbital elements:
2024 OE2                                                 Earth MOID = 0.0084 AU
Epoch 2024 Oct. 17.0 TT = JDT 2460600.5                 Bell                    
M  30.20446              (2000.0)            P               Q                  
n   0.30202216     Peri.  145.20478     +0.20135574     +0.97929847             
a   2.2001055      Node   136.40105     -0.90538089     +0.19415668             
e   0.5466892      Incl.    1.72390     -0.37381988     +0.05725115             
P   3.26           H   27.24          G   0.15           U   7                  
Residuals in seconds of arc
240731 F51  0.2+  0.1-    240731 L01 (0.0   1.3-)   240801 H21  0.2-  0.1-
240731 F51  0.1-  0.1+    240731 Z84 (2.1+  0.2+)   240801 H21  0.0   0.1+
240731 F51  0.1-  0.0     240731 Z84 (1.6+  0.2+)   240801 H21  0.0   0.4-
240731 M45  0.1+  0.0     240731 L34  0.3+  0.1+    240801 T14  0.0   0.1+
240731 M45  0.6-  0.2+    240731 L34  0.1+  0.1+    240801 T14  0.0   0.1+
240731 M45  0.1-  0.1-    240731 I93  0.3+  0.0     240801 T14  0.1+  0.2+
240731 L01 (1.1-  0.5+)   240731 I93  0.3+  0.1+    240801 T14  0.0   0.2+
240731 L01  0.8-  0.1+    240731 I93  0.5+  0.2+
240731 L01  0.3-  0.7-    240801 H21  0.3-  0.1-

Ephemeris:
2024 OE2                 a,e,i = 2.20, 0.55, 2                   q = 0.9973
Date    TT    R. A. (2000) Decl.     Delta      r    Elong.  Phase     V
2024 07 02    12 12 15.0 +08 30 39   0.1302  1.0006    79.3    93.4    26.1
...
2024 07 17    12 51 23.9 +07 57 45   0.05867 1.0022    74.5   102.3    24.8
...
2024 07 25    14 45 14.8 +06 05 20   0.02244 1.0177    94.3    84.4    22.0
...
2024 07 31    20 40 39.0 -05 24 29   0.02085 1.0355   167.1    12.6    19.7
2024 08 01    21 15 41.4 -06 18 44   0.02460 1.0389   166.1    13.5    20.1
2024 08 02    21 41 04.6 -06 53 08   0.02877 1.0425   163.3    16.2    20.5
...
2024 08 08    22 46 47.2 -08 05 06   0.05741 1.0666   155.6    23.2    22.3
...
2024 08 16    23 10 00.6 -08 34 30   0.09907 1.1051   157.9    20.1    23.4
...
2024 08 31    23 18 32.7 -09 07 28   0.1858  1.1928   169.9     8.5    24.6

M. P. C. Staff               (C) Copyright 2024 MPC           M.P.E.C. 2024-P16





More information about the Iaude mailing list